Printer-friendly version
Follow the MPC on Twitter Follow the MPC on Facebook The MPC blog
Minor Planet Center

MPEC 2008-Q12 : COMET C/2008 Q1 (MATICIC)

The following Minor Planet Electronic Circular may be linked-to from your own Web pages, but must not otherwise be redistributed electronically.

A form allowing access to any MPEC is at the bottom of this page.


Read MPEC 2008-Q11 Read MPEC 2008-Q13


M.P.E.C. 2008-Q12                                Issued 2008 Aug. 20, 22:18 UT

     The Minor Planet Electronic Circulars contain information on unusual
         minor planets and routine data on comets.  They are published
   on behalf of Commission 20 of the International Astronomical Union by the
          Minor Planet Center, Smithsonian Astrophysical Observatory,
                          Cambridge, MA 02138, U.S.A.

             Prepared using the Tamkin Foundation Computer Network

                              MPC@CFA.HARVARD.EDU
          URL http://www.cfa.harvard.edu/iau/mpc.html  ISSN 1523-6714

                           COMET C/2008 Q1 (MATICIC)

Observations:
    CK08Q010  C2008 08 18.81364 19 02 50.20 +50 51 19.5          17.8 N EQ012106
    CK08Q010  C2008 08 18.82325 19 02 48.28 +50 51 12.2          17.8 N EQ012106
    CK08Q010  C2008 08 18.83287 19 02 46.26 +50 51 04.4          17.6 N EQ012106
    CK08Q010  C2008 08 18.84247 19 02 44.35 +50 50 56.7          18.0 N EQ012106
    CK08Q010  C2008 08 19.80954 18 59 31.39 +50 37 57.4          17.7 N EQ012B03
    CK08Q010  C2008 08 19.81014 18 59 31.25 +50 37 57.8          17.1 T EQ012106
    CK08Q010  C2008 08 19.81165 18 59 31.01 +50 37 55.9                 EQ012118
    CK08Q010  C2008 08 19.81478 18 59 30.35 +50 37 54.0                 EQ012118
    CK08Q010  C2008 08 19.81624 18 59 30.09 +50 37 52.3          17.4 T EQ012106
    CK08Q010  C2008 08 19.81775 18 59 29.77 +50 37 50.8                 EQ012118
    CK08Q010  C2008 08 19.81775 18 59 29.77 +50 37 51.1          18.5 N EQ012B03
    CK08Q010  C2008 08 19.81972 18 59 29.41 +50 37 49.3          17.6 T EQ012106
    CK08Q010  C2008 08 19.82670 18 59 28.02 +50 37 44.2          17.2 T EQ012106
    CK08Q010  C2008 08 19.82967 18 59 27.43 +50 37 40.7          17.7 N EQ012B03
    CK08Q010  C2008 08 19.83100 18 59 27.18 +50 37 39.8          18.2 N EQ012595
    CK08Q010  C2008 08 19.83199 18 59 26.99 +50 37 39.1          18.5 N EQ012B55
    CK08Q010  C2008 08 19.83228 18 59 26.90 +50 37 39.5          17.9 N EQ012B03
    CK08Q010  C2008 08 19.83600 18 59 26.16 +50 37 36.1          18.3 N EQ012595
    CK08Q010  C2008 08 19.83601 18 59 26.14 +50 37 35.9          17.9 N EQ012B03
    CK08Q010  C2008 08 19.83613 18 59 26.12 +50 37 35.9          18.3 N EQ012B55
    CK08Q010  C2008 08 19.84027 18 59 25.23 +50 37 32.7          18.1 N EQ012B55
    CK08Q010  C2008 08 19.84048 18 59 25.27 +50 37 31.9          17.7 N EQ012B03
    CK08Q010  C2008 08 19.84050 18 59 25.25 +50 37 32.0          18.1 N EQ012595
    CK08Q010  C2008 08 19.84681 18 59 24.02 +50 37 26.6          17.8 N EQ012B03
    CK08Q010  C2008 08 19.85288 18 59 22.79 +50 37 21.8          18.0 N EQ012B03
    CK08Q010  C2008 08 19.87631 18 59 18.22 +50 37 02.3                 EQ012J95
    CK08Q010  C2008 08 19.87653 18 59 18.10 +50 37 02.5          17.6 T EQ012235
    CK08Q010  C2008 08 19.87875 18 59 17.71 +50 37 00.5                 EQ012J95
    CK08Q010  C2008 08 19.88094 18 59 17.29 +50 36 58.7                 EQ012J95
    CK08Q010  C2008 08 19.89068 18 59 15.29 +50 36 50.7          17.6 T EQ012235
    CK08Q010  C2008 08 19.89584 18 59 14.32 +50 36 46.3                 EQ012J95
    CK08Q010  C2008 08 19.90692 18 59 12.12 +50 36 37.2          18.0 N EQ012J95
    CK08Q010  C2008 08 20.06617 18 58 40.78 +50 34 25.8          18.5 N EQ012H85
    CK08Q010  C2008 08 20.07287 18 58 39.49 +50 34 20.3          18.5 T EQ012H55
    CK08Q010  C2008 08 20.07769 18 58 38.55 +50 34 16.2          18.5 T EQ012H55
    CK08Q010  C2008 08 20.08251 18 58 37.61 +50 34 12.2          18.5 T EQ012H55
    CK08Q010  C2008 08 20.10289 18 58 33.53 +50 33 55.3          18.6 N EQ012H85
    CK08Q010  C2008 08 20.17757 18 58 18.70 +50 32 52.6          17.8 R EQ012932
    CK08Q010  C2008 08 20.18498 18 58 17.23 +50 32 46.5          17.7 N EQ012932
    CK08Q010  C2008 08 20.20460 18 58 13.35 +50 32 29.9          17.8 N EQ012932
    CK08Q010  C2008 08 20.48021 18 57 19.70 +50 28 38.3          18.0 N EQ012355
    CK08Q010  C2008 08 20.48167 18 57 19.48 +50 28 37.3                 EQ012355
    CK08Q010  C2008 08 20.48313 18 57 19.07 +50 28 36.6                 EQ012355
    CK08Q010  C2008 08 20.48459 18 57 18.85 +50 28 35.8                 EQ012355
    CK08Q010  C2008 08 20.54116 18 57 07.53 +50 27 47.6          18.1 N EQ012900
    CK08Q010  C2008 08 20.54799 18 57 06.19 +50 27 41.4                 EQ012900
    CK08Q010  C2008 08 20.80277 18 56 16.64 +50 24 02.8          18.4 T EQ012106
    CK08Q010  C2008 08 20.80483 18 56 16.34 +50 24 02.1          18.2 N EQ012104
    CK08Q010  C2008 08 20.80625 18 56 16.10 +50 23 59.6          18.7 T EQ012106
    CK08Q010  C2008 08 20.80974 18 56 15.37 +50 23 58.8          17.9 T EQ012106
    CK08Q010  C2008 08 20.81007 18 56 15.33 +50 23 57.5          18.4 N EQ012104
    CK08Q010  C2008 08 20.81230 18 56 14.92 +50 23 55.2          17.7 T EQ012473
    CK08Q010  C2008 08 20.81308 18 56 14.75 +50 23 54.9          18.3 N EQ012104
    CK08Q010  C2008 08 20.81322 18 56 14.70 +50 23 54.9          17.9 T EQ012106
    CK08Q010  C2008 08 20.81374 18 56 14.52 +50 23 54.2          18.6 T EQ012461
    CK08Q010  C2008 08 20.81823 18 56 13.67 +50 23 50.6                 EQ012461
    CK08Q010  C2008 08 20.82273 18 56 12.81 +50 23 46.7                 EQ012461
    CK08Q010  C2008 08 20.82402 18 56 12.56 +50 23 45.3          18.6 T EQ012147
    CK08Q010  C2008 08 20.83128 18 56 11.21 +50 23 39.4          18.5 T EQ012147
    CK08Q010  C2008 08 20.83855 18 56 09.81 +50 23 33.4                 EQ012147
    CK08Q010  C2008 08 20.84027 18 56 09.40 +50 23 32.4          17.8 T EQ012473
    CK08Q010  C2008 08 20.84073 18 56 09.40 +50 23 30.6          18.3 T EQ012147
    CK08Q010  C2008 08 20.84157 18 56 09.15 +50 23 31.0          18.1 T EQ012B20
    CK08Q010  C2008 08 20.84281 18 56 08.92 +50 23 29.5          17.9 N EQ012B09
    CK08Q010  C2008 08 20.84400 18 56 08.68 +50 23 29.1          18.3 N EQ012B09
    CK08Q010  C2008 08 20.84432 18 56 08.62 +50 23 28.6          18.1 T EQ012B20
    CK08Q010  C2008 08 20.84704 18 56 08.06 +50 23 26.3          18.3 N EQ012B09
    CK08Q010  C2008 08 20.84799 18 56 07.91 +50 23 25.2          18.0 T EQ012B20

Observer details:
104 San Marcello Pistoiese.  Observers L. Tesi, G. Fagioli, M. Mazzucato.
    Measurer L. Tesi.  0.60-m f/4 reflector + CCD.
106 Crni Vrh.  Observers S. Maticic, H. Mikuz, J. Skvarc.  0.6-m f/3.3
    Deltagraph + CCD.
118 Modra.  Observer S. Gajdos.  0.6-m f/5.5 reflector + CCD.
147 Osservatorio Astronomico di Suno.  Observers P. Concari, D. Crespi,
    S. Foglia, G. Galli, O. Lesca, S. Minuto.  Measurers D. Crespi, S. Foglia,
    O. Lesca.  0.40-m f/4 reflector + CCD.
235 CAST Observatory, Talmassons.  Observer R. Ligustri.  0.35-m f/5 reflector
    + CCD.
355 Hadano.  Observer A. Asami.  0.28-m f/5.0 reflector + CCD.
461 University of Szeged, Piszkesteto Stn. (Konkoly).  Observer K. Sarneczky.
    0.60-m Schmidt + CCD.
473 Remanzacco.  Observers V. Gonano, E. Guido, G. Sostero.  0.45-m f/4.4
    Newtonian reflector + CCD.
595 Farra d'Isonzo.  Observers L. Bittesini, G. Lombardi, E. Pettarin,
    F. Piani.  Measurers G. Lombardi, E. Pettarin, F. Piani.  0.40-m f/4.5
    reflector + CCD.
900 Moriyama.  Observer Y. Ikari.  0.26-m f/7.0 reflector + CCD.
932 John J. McCarthy Obs., New Milford.  Observers S. Riley, M. Robson.  0.4-m
    f/6.5 Schmidt-Cassegrain + CCD.
B03 Alter Satzberg, Vienna.  Observer M. Pietschnig.  0.35-m f/11
    Schmidt-Cassegrain + CCD.
B09 Capannoli.  Observers P. Bacci, R. Bacci.  Measurer P. Bacci.  0.25-m f/10
    Schmidt-Cassegrain + CCD.
B20 Observatorio Carmelita, Tiana.  Observer J. M. Aymami.  0.25-m f/4.3
    Schmidt-Cassegrain + CCD.
B55 Comeglians.  Observers G. Sostero, E. Guido.  0.15-m f/6 reflector + CCD.
H55 Astronomical Research Observatory, Charleston.  Observer R. Holmes.
    Measurers R. Holmes, H. Devore.  0.81-m f/4.0 astrograph + CCD.
H85 Silver Spring.  Observer K. Levin.  Measurer J. C. Pelle.  0.45-m f/7.25
    Ritchey-Chretien + CCD.
J95 Great Shefford.  Observer P. Birtwhistle.  0.40-m f/6.0 Schmidt-Cassegrain
    + CCD.

Orbital elements:
    C/2008 Q1 (Maticic)
T 2009 Jan. 2.546 TT                                    MPC
q   2.94139              (2000.0)            P               Q
                   Peri.  105.645       -0.190063       -0.971123
                   Node     9.460       -0.794872       +0.065998
e   1.0            Incl.  118.672       +0.576242       -0.229268
From 67 observations 2008 Aug. 18-20.

Ephemeris:
    C/2008 Q1 (Maticic)
Date    TT    R. A. (2000) Decl.     Delta      r     Elong.  Phase   m1    m2
2008 08 12    19 26.88   +52 06.0    2.811    3.269   108.0    17.1  17.4
2008 08 22    18 52.45   +50 06.6    2.811    3.228   105.2    17.6  17.3
2008 09 01    18 24.10   +47 15.4    2.844    3.188   100.6    18.1  17.3
2008 09 11    18 02.45   +43 55.8    2.903    3.152    94.8    18.6  17.3
2008 09 21    17 46.82   +40 28.3    2.982    3.118    88.3    18.8  17.3
2008 10 01    17 36.14   +37 07.0    3.074    3.086    81.3    18.7  17.3
2008 10 11    17 29.34   +34 01.1    3.171    3.058    74.4    18.3  17.4
2008 10 21    17 25.48   +31 15.2    3.266    3.032    67.7    17.7  17.4

Brian G. Marsden             (C) Copyright 2008 MPC           M.P.E.C. 2008-Q12

Read MPEC 2008-Q11 Read MPEC 2008-Q13


MPEC number:

Enter an MPEC number in one of the following forms:

  • 1997-B01 (the full form)
  • J97B01 (the packed version of the full form)
  • B01 (the abbreviated form)

Valid HTML 4.01!